Torna al catalogo

THORAD AGENA D DEB

AttivoLEO
NORAD 5430·DEBRIS·🇺🇸 United States

Lanciato Sep 30, 1969 da Vandenberg Space Force Base

Loading…

Prossimi Passaggi (prossime 24 ore)

TLE

AggiornatoSource: Space-Track

Epoca: Sep 14, 2026, 04:56 UTC

1 05430U 69082HW  26257.20581439  .00000575  00000-0  28609-3 0  9996
2 05430  70.1066 184.1647 0057653 193.0355 166.9278 14.20936542925884

Traccia THORAD AGENA D DEB in tempo reale con AllMySat

Download on the App Store